Hourly Data Report for October 26, 2013

All times are specified in Local Standard Time (LST). Add 1 hour to adjust for Daylight Saving Time where and when it is observed.

ST LEONARD CS
NEW BRUNSWICK

47°09'28.050" N
67°49'55.014" W
245.00 m
810I001
71019
WIY

Download Data

Hourly Data (October 2013)
Hourly Data Report for October 26, 2013
Temp Definition
°C
Dew Point Temp Definition
°C
Rel Hum Definition
%
Wind Dir Definition
10's deg

Wind Spd Definition
km/h
Visibility Definition
km
Stn Press Definition
kPa
Hmdx Definition


Wind Chill Definition


Weather Definition


TIME
00:00 -0.1 -1.2 92 23 9   98.34   -3 LegendNANA
01:00 -0.5 -1.5 93 22 4   98.39   -2 LegendNANA
02:00 -0.9 -1.7 94 24 2   98.40   -2 LegendNANA
03:00 -1.1 -1.9 94 23 4   98.39   -2 LegendNANA
04:00 -1.7 -2.1 97 24 4   98.40   -3 LegendNANA
05:00 -2.0 -2.3 98 17 2   98.41   -3 LegendNANA
06:00 -2.4 -2.9 96 17 6   98.42   -5 LegendNANA
07:00 -3.0 -3.4 97 17 6   98.46   -5 LegendNANA
08:00 -2.1 -2.8 95 17 7   98.51   -5 LegendNANA
09:00 -1.0 -1.8 94 17 6   98.53   -3 LegendNANA
10:00 0.9 -0.6 90 18 2   98.51     LegendNANA
11:00 3.6 -0.8 73 24 4   98.46     LegendNANA
12:00 5.1 -1.3 63 22 13   98.41     LegendNANA
13:00 4.6 -5.1 49 24 17   98.36     LegendNANA
14:00 4.9 -4.7 50 19 11   98.31     LegendNANA
15:00 5.4 -4.1 50 20 20   98.26     LegendNANA
16:00 4.6 -3.3 56 19 20   98.23     LegendNANA
17:00 3.9 -3.6 58 17 17   98.19     LegendNANA
18:00 2.3 -0.9 79 18 22   98.22     LegendNANA
19:00 1.4 -0.1 90 18 15   98.20     LegendNANA
20:00 1.1 0.5 96 15 9   98.14     LegendNANA
21:00 0.9 0.4 96 14 13   98.10     LegendNANA
22:00 0.8 0.5 98 14 11   98.07     LegendNANA
23:00 1.5 1.1 97 15 11   98.00     LegendNANA

Notes on Data Quality.

Legend

  • E = Estimated
  • M = Missing
  • NA = Not Available
  • ‡ = Partner data that is not subject to review by the National Climate Archives
Date modified: